Orr, MN

8:21 AM CST on February 24, 2018 (GMT -0600)
Orr Regional

Weather History for KORB - January, 2014

Change the Weather History Date:

Tuesday, January 7, 2014

  Actual Average Record
Temperature  
Mean Temperature -17 °F -  
Max Temperature -7 °F 14 °F 44 °F (2003)
Min Temperature -27 °F 0 °F -27 °F (2014)
Degree Days  
Heating Degree Days 82    
Moisture  
Dew Point -23 °F    
Average Humidity 71    
Maximum Humidity 84    
Minimum Humidity 64    
Precipitation  
Precipitation 0.00 in - - ()
Sea Level Pressure  
Sea Level Pressure 29.97 in    
Wind  
Wind Speed 5 mph (WNW)    
Max Wind Speed 14 mph    
Max Gust Speed 21 mph    
Visibility 10 miles    
Events      
Averages and records for this station are not official NWS values.
T = Trace of Precipitation, MM = Missing Value Source: NWS Daily Summary

Daily Weather History Graph

Daily Weather History Graph

Search for Another Location

Airport or City:

Trip Planner

Search our weather history database for the weather conditions in past years. The results will help you decide how hot, cold, wet, or windy it might be!

Date:

Astronomy

Jan. 07, 2014 Rise Set
Actual Time 8:00 AM CST 4:35 PM CST
Civil Twilight 7:24 AM CST 5:11 PM CST
Nautical Twilight 6:45 AM CST 5:50 PM CST
Astronomical Twilight 6:07 AM CST 6:28 PM CST
Moon 11:15 AM CST (1/7) No Moon Set
Length of Visible Light 9h 46m
Length of Day
8h 35m
Waxing Crescent, 46% of the Moon is Illuminated
Jan 7
Waxing Crescent
Jan 7
First Quarter
Jan 15
Full
Jan 23
Last Quarter
Jan 30
New

Hourly Weather History & Observations

Time (CST) Temp. Windchill Dew Point Humidity Pressure Visibility Wind Dir Wind Speed Gust Speed Precip Events Conditions
12:13 AM -25.6 °F -39.8 °F -32.8 °F 69% 29.90 in 10.0 mi West 4.6 mph - N/A   Overcast
12:33 AM -25.6 °F -43.8 °F -32.8 °F 69% 29.90 in 10.0 mi West 6.9 mph - N/A   Overcast
12:53 AM -25.6 °F -41.9 °F -32.8 °F 69% 29.89 in 10.0 mi West 5.8 mph - N/A   Mostly Cloudy
1:13 AM -25.6 °F -43.8 °F -32.8 °F 69% 29.89 in 10.0 mi West 6.9 mph - N/A   Mostly Cloudy
1:33 AM -25.6 °F -39.8 °F -32.8 °F 69% 29.89 in 10.0 mi West 4.6 mph - N/A   Scattered Clouds
1:53 AM -25.6 °F -37.1 °F -32.8 °F 69% 29.89 in 10.0 mi West 3.5 mph - N/A   Clear
2:14 AM -25.6 °F -39.8 °F -32.8 °F 69% 29.89 in 10.0 mi West 4.6 mph - N/A   Clear
2:33 AM -25.6 °F -39.8 °F -32.8 °F 69% 29.90 in 10.0 mi West 4.6 mph - N/A   Clear
2:53 AM -25.6 °F - -32.8 °F 69% 29.89 in 10.0 mi Calm Calm - N/A   Clear
3:13 AM -25.6 °F - -32.8 °F 69% 29.89 in 10.0 mi Calm Calm - N/A   Mostly Cloudy
3:33 AM -25.6 °F -37.1 °F -32.8 °F 69% 29.89 in 10.0 mi West 3.5 mph - N/A   Overcast
3:53 AM -23.8 °F -35.0 °F -31.0 °F 69% 29.89 in 10.0 mi West 3.5 mph - N/A   Overcast
4:13 AM -25.6 °F - -32.8 °F 69% 29.89 in 10.0 mi Calm Calm - N/A   Overcast
4:33 AM -25.6 °F - -32.8 °F 69% 29.88 in 10.0 mi Calm Calm - N/A   Overcast
4:53 AM -27.4 °F - -34.6 °F 69% 29.88 in 10.0 mi Calm Calm - N/A   Mostly Cloudy
5:13 AM -27.4 °F - -34.6 °F 69% 29.88 in 10.0 mi Calm Calm - N/A   Scattered Clouds
5:33 AM -25.6 °F - -32.8 °F 69% 29.88 in 10.0 mi Calm Calm - N/A   Mostly Cloudy
5:53 AM -22.0 °F - -29.2 °F 69% 29.88 in 10.0 mi Calm Calm - N/A   Overcast
6:13 AM -23.8 °F - -29.2 °F 76% 29.87 in 10.0 mi Calm Calm - N/A   Overcast
6:33 AM -18.4 °F -41.2 °F -25.6 °F 70% 29.87 in 10.0 mi WNW 12.7 mph 16.1 mph N/A   Overcast
6:53 AM -18.4 °F -42.1 °F -25.6 °F 70% 29.87 in 10.0 mi WNW 13.8 mph 20.7 mph N/A   Overcast
7:13 AM -18.4 °F -39.1 °F -25.6 °F 70% 29.88 in 10.0 mi WNW 10.4 mph 17.3 mph N/A   Mostly Cloudy
7:33 AM -18.4 °F -37.9 °F -25.6 °F 70% 29.89 in 10.0 mi NW 9.2 mph 18.4 mph N/A   Clear
7:53 AM -20.2 °F -40.1 °F -27.4 °F 69% 29.90 in 10.0 mi WNW 9.2 mph - N/A   Scattered Clouds
8:13 AM -20.2 °F -37.3 °F -25.6 °F 76% 29.90 in 10.0 mi WNW 6.9 mph - N/A   Mostly Cloudy
8:33 AM -20.2 °F -38.8 °F -27.4 °F 69% 29.91 in 7.0 mi WNW 8.1 mph - N/A   Mostly Cloudy
8:53 AM -20.2 °F -38.8 °F -25.6 °F 76% 29.92 in 10.0 mi WNW 8.1 mph - N/A   Scattered Clouds
9:13 AM -18.4 °F -39.1 °F -25.6 °F 70% 29.92 in 10.0 mi WNW 10.4 mph - N/A   Scattered Clouds
9:33 AM -18.4 °F -39.1 °F -25.6 °F 70% 29.94 in 10.0 mi WNW 10.4 mph - N/A   Mostly Cloudy
9:53 AM -18.4 °F -40.2 °F -25.6 °F 70% 29.94 in 10.0 mi WNW 11.5 mph - N/A   Overcast
10:13 AM -16.6 °F -37.9 °F -25.6 °F 64% 29.95 in 10.0 mi WNW 11.5 mph - N/A   Overcast
10:33 AM -16.6 °F -37.9 °F -23.8 °F 70% 29.96 in 10.0 mi NW 11.5 mph - N/A   Scattered Clouds
10:53 AM -16.6 °F -36.8 °F -23.8 °F 70% 29.96 in 10.0 mi WNW 10.4 mph - N/A   Scattered Clouds
11:13 AM -14.8 °F -33.5 °F -23.8 °F 64% 29.96 in 10.0 mi WNW 9.2 mph - N/A   Mostly Cloudy
11:33 AM -14.8 °F -34.6 °F -23.8 °F 64% 29.96 in 10.0 mi NW 10.4 mph - N/A   Overcast
11:53 AM -13.0 °F -32.4 °F -22.0 °F 64% 29.96 in 10.0 mi WNW 10.4 mph - N/A   Mostly Cloudy
12:13 PM -13.0 °F -30.0 °F -22.0 °F 64% 29.96 in 10.0 mi WNW 8.1 mph - N/A   Scattered Clouds
12:33 PM -11.2 °F -29.0 °F -20.2 °F 64% 29.95 in 10.0 mi WNW 9.2 mph - N/A   Mostly Cloudy
12:53 PM -11.2 °F -29.0 °F -18.4 °F 70% 29.95 in 10.0 mi WNW 9.2 mph - N/A   Overcast
1:13 PM -9.4 °F -25.6 °F -18.4 °F 65% 29.95 in 10.0 mi West 8.1 mph - N/A   Overcast
1:33 PM -9.4 °F -24.3 °F -16.6 °F 71% 29.96 in 10.0 mi West 6.9 mph - N/A   Overcast
1:53 PM -7.6 °F -18.8 °F -16.6 °F 65% 29.96 in 10.0 mi West 4.6 mph - N/A   Overcast
2:13 PM -7.6 °F -20.6 °F -16.6 °F 65% 29.97 in 10.0 mi West 5.8 mph - N/A   Overcast
2:33 PM -7.6 °F -20.6 °F -16.6 °F 65% 29.98 in 10.0 mi West 5.8 mph - N/A   Overcast
2:53 PM -7.6 °F -22.1 °F -16.6 °F 65% 30.00 in 10.0 mi WNW 6.9 mph - N/A   Overcast
3:13 PM -7.6 °F -16.5 °F -14.8 °F 71% 30.00 in 10.0 mi West 3.5 mph - N/A   Overcast
3:33 PM -7.6 °F -20.6 °F -14.8 °F 71% 30.00 in 10.0 mi West 5.8 mph - N/A   Overcast
3:53 PM -7.6 °F -18.8 °F -16.6 °F 65% 30.01 in 10.0 mi West 4.6 mph - N/A   Overcast
4:13 PM -7.6 °F -18.8 °F -16.6 °F 65% 30.01 in 10.0 mi West 4.6 mph - N/A   Overcast
4:33 PM -7.6 °F -16.5 °F -14.8 °F 71% 30.02 in 10.0 mi West 3.5 mph - N/A   Overcast
4:53 PM -7.6 °F -18.8 °F -14.8 °F 71% 30.02 in 10.0 mi West 4.6 mph - N/A   Overcast
5:14 PM -7.6 °F -16.5 °F -14.8 °F 71% 30.03 in 10.0 mi WNW 3.5 mph - N/A   Overcast
5:33 PM -7.6 °F -18.8 °F -14.8 °F 71% 30.02 in 10.0 mi West 4.6 mph - N/A   Overcast
5:53 PM -7.6 °F -16.5 °F -14.8 °F 71% 30.03 in 10.0 mi West 3.5 mph - N/A   Overcast
6:13 PM -7.6 °F -18.8 °F -14.8 °F 71% 30.04 in 10.0 mi WNW 4.6 mph - N/A   Overcast
6:33 PM -9.4 °F -20.9 °F -14.8 °F 77% 30.04 in 10.0 mi West 4.6 mph - N/A   Overcast
6:53 PM -9.4 °F -20.9 °F -14.8 °F 77% 30.04 in 10.0 mi West 4.6 mph - N/A   Overcast
7:13 PM -9.4 °F -20.9 °F -16.6 °F 71% 30.05 in 10.0 mi West 4.6 mph - N/A   Scattered Clouds
7:33 PM -9.4 °F -22.7 °F -16.6 °F 71% 30.05 in 10.0 mi West 5.8 mph - N/A   Clear
7:53 PM -11.2 °F -23.0 °F -16.6 °F 77% 30.06 in 10.0 mi West 4.6 mph - N/A   Clear
8:13 PM -11.2 °F -23.0 °F -16.6 °F 77% 30.06 in 10.0 mi West 4.6 mph - N/A   Clear
8:33 PM -13.0 °F -22.7 °F -18.4 °F 77% 30.07 in 10.0 mi West 3.5 mph - N/A   Clear
8:53 PM -13.0 °F -22.7 °F -18.4 °F 77% 30.08 in 10.0 mi West 3.5 mph - N/A   Clear
9:14 PM -13.0 °F -22.7 °F -18.4 °F 77% 30.09 in 10.0 mi West 3.5 mph - N/A   Clear
9:33 PM -14.8 °F -24.8 °F -18.4 °F 84% 30.09 in 10.0 mi WNW 3.5 mph - N/A   Clear
9:53 PM -14.8 °F -24.8 °F -20.2 °F 77% 30.09 in 10.0 mi West 3.5 mph - N/A   Clear
10:13 PM -14.8 °F -24.8 °F -20.2 °F 77% 30.09 in 10.0 mi West 3.5 mph - N/A   Clear
10:33 PM -14.8 °F - -20.2 °F 77% 30.09 in 10.0 mi Calm Calm - N/A   Scattered Clouds
10:53 PM -14.8 °F - -20.2 °F 77% 30.09 in 10.0 mi Calm Calm - N/A   Mostly Cloudy
11:13 PM -14.8 °F -24.8 °F -20.2 °F 77% 30.10 in 10.0 mi West 3.5 mph - N/A   Mostly Cloudy
11:33 PM -14.8 °F - -20.2 °F 77% 30.10 in 10.0 mi Calm Calm - N/A   Overcast
11:53 PM -14.8 °F - -20.2 °F 77% 30.10 in 10.0 mi Calm Calm - N/A   Overcast